Flag for U.S.A. Weather past 2 weeks in Abilene, Texas, U.S.A.

Now
68 °F

Thunderstorms. Passing clouds.


Feels Like: 68 °F
Forecast: 64 / 74 °F
Wind: 26 mph from Northwest

Location: Abilene Regional Airport

Current Time: May 30, 2015 at 2:23:52 AM

Latest Report: May 30, 2015 at 2:01 AM


Visibility: 10 mi

Pressure: 30.01 "Hg

Humidity: 78%

Dew point: 61 °F

Location of AbileneLocation

Historic Weather in Abilene — Graph

°F

Abilene temperature yesterday

Maximum temperature yesterday: 85 °F (at 5:52 PM)
Minimum temperature yesterday: 62 °F (at 4:52 AM)
Average temperature yesterday: 73 °F

Past Weeks' High & Low Weather Summary

 TemperatureHumidityPressure
High90 °F (May 26, 4:52 PM)100% (May 28, 11:52 PM)30.24 "Hg (May 28, 11:52 PM)
Low53 °F (May 21, 6:52 AM)24% (May 17, 6:52 PM)29.60 "Hg (May 16, 6:52 PM)
Average71 °F76%29.91 "Hg
* Reported May 15 12:52 AM — May 30 12:52 AM, Abilene, Weather by CustomWeather, © 2015

Note: Actual official high and low records may vary slightly from our data, if they occured in-between our weather recording intervals... More about our weather records

Advertising

Abilene weather history for previous 24 hours

 ConditionsComfort  
Time TempWeatherWind HumidityBarometerVisibility
12:52 AM
Sat, May 30
74 °FThunderstorms. Clear.14 mph79%29.86 "Hg10 mi
11:52 PM
Fri, May 29
75 °FThunderstorms. Clear.8 mph79%29.93 "Hg10 mi
10:52 PM77 °FMostly cloudy.7 mph77%29.94 "Hg10 mi
9:52 PM77 °FOvercast.8 mph79%29.90 "Hg10 mi
8:52 PM78 °FSunny.7 mph74%29.88 "Hg10 mi
7:52 PM83 °FScattered clouds.7 mph63%29.87 "Hg10 mi
6:52 PM83 °FSunny.5 mph61%29.87 "Hg10 mi
5:52 PM85 °FSunny.8 mph57%29.87 "Hg10 mi
4:52 PM84 °FScattered clouds.6 mph59%29.88 "Hg10 mi
3:52 PM84 °FScattered clouds.9 mph57%29.89 "Hg10 mi
2:52 PM83 °FSunny.12 mph55%29.89 "Hg10 mi
1:52 PM80 °FSunny.6 mph52%29.91 "Hg10 mi
12:52 PM76 °FSunny.No wind62%29.93 "Hg10 mi
11:52 AM72 °FSunny.3 mph71%29.95 "Hg10 mi
10:52 AM69 °FSunny.6 mph79%29.96 "Hg10 mi
9:52 AM66 °FSunny.5 mph81%29.94 "Hg10 mi
8:52 AM65 °FSunny.5 mph85%29.93 "Hg10 mi
7:52 AM64 °FSunny.3 mph90%29.93 "Hg10 mi
6:52 AM63 °FPassing clouds.No wind93%29.95 "Hg10 mi
5:52 AM63 °FOvercast.5 mph93%29.90 "Hg10 mi
4:52 AM62 °FPassing clouds.No wind93%29.86 "Hg10 mi
3:52 AM63 °FClear.9 mph93%29.85 "Hg10 mi
2:52 AM64 °FClear.15 mph94%29.88 "Hg10 mi
Weather by CustomWeather, © 2015

See weather overviewHow to use our weather pages